Lee-on-the-Solent, United Kingdom
Current Conditions -  °F | °C
As of 7:50 AM on Thursday 23 Oct 2014 (Local Time) from EGHI Reporting Station
Broken Clouds Broken Clouds  
Wind Chill: 12°   Ceiling: 3800
Heat Index: 12°   Visibility: 6mi
Dew Point:   Wind: 8mph
Humidity: 77%   Direction: 230°SW
Pressure: 30.15"   Gusts: NA
Location:  50.8°N, 1.2°W
Report Text: EGHI 230650Z 23007KT 9999 BKN038 12/08 Q1021
Loading
Personal Weather Stations






























Interactive Weather Map
Tropical Storm Tracking
New forecast layout! Learn more

10-Day Weather Forecast

Advertisements
Track Severe Weather on mobile